www.pogodaiklimat.ru

Погода и климат >> Архив погоды >> Австрия >> Афленц-Курорт


ПОГОДА в Афленц-Курорте

  • Прогноз погоды в Афленц-Курорте
  • Монитор погоды в Афленц-Курорте

АРХИВ ПОГОДЫ в Афленц-Курорте

Время (UTC), дата Ветер
(напр.,м/с)
 
Видим.   Явления Облачность Т
(С)
Тd
(С)
f
(%)
Тe
(С)
Тes
(С)
Комфортность P
(гПа)
Po
(гПа)
Тmin
(С)
Tmax
(С)
R
(мм)
R24
(мм)
S
(см)
16 17.06 Ю 2 н/о в посл. час осадки н/о +16.2 +15.6 96 +16 +16 1019.1 931.3 0.4
17 17.06 В 1 н/о н/о +16.7 +15.8 94 +18 +18 1018.7 931.1 0.0
18 17.06 штиль 0 н/о {осадки} н/о +16.5 +15.6 94 +16 +16 1018.6 930.9 +16.2 +24.1 8
19 17.06 СЗ 2 н/о н/о +15.5 +14.5 94 +15 +15 1019.0 931.0
20 17.06 С 1 н/о н/о +15.4 +14.6 95 +16 +16 1019.7 931.6
21 17.06 СЗ 1 н/о н/о +15.2 +14.4 95 +16 +16 1019.8 931.6
22 17.06 штиль 0 н/о н/о +14.8 +14.0 95 +14 +14 1019.8 931.5
23 17.06 З 1 н/о н/о +15.0 +14.2 95 +15 +15 1019.6 931.4
00 18.06 штиль 0 н/о н/о +15.0 +14.2 95 +15 +15 1019.5 931.3
01 18.06 В 1 н/о н/о +15.0 +14.0 94 +15 +15 1018.9 930.7
02 18.06 СЗ 2 н/о н/о +14.5 +13.5 94 +14 +14 1018.6 930.3
03 18.06 СЗ 1 н/о н/о +14.4 +13.2 92 +15 +15 1018.6 930.2
04 18.06 штиль 0 н/о н/о +14.5 +13.3 93 +14 +14 1018.6 930.3
05 18.06 СВ 1 н/о н/о +14.4 +13.2 92 +15 +15 1018.7 930.3
06 18.06 СВ 1 н/о н/о +15.1 +13.8 92 +16 +16 1018.9 930.7 +14.2 +16.5
07 18.06 В 1 н/о н/о +15.6 +13.9 90 +16 +16 1018.7 930.7
08 18.06 В 1 н/о н/о +17.3 +14.5 84 +18 +18 1018.1 930.7
09 18.06 Ю 1 н/о н/о +19.8 +14.3 71 +23 +23 комфорт 1016.9 930.3
10 18.06 В 2 н/о н/о +22.0 +13.6 59 +25 +25 комфорт 1015.8 929.8
11 18.06 СЗ 1 н/о н/о +22.8 +13.0 54 +26 +26 жарко 1014.9 929.2
12 18.06 Ю 2 н/о н/о +24.0 +12.6 49 +26 +26 жарко 1013.9 928.6
13 18.06 ЮЗ 2 н/о н/о +24.2 +11.8 46 +26 +26 жарко 1013.3 928.1
14 18.06 ЮВ 2 н/о н/о +25.2 +12.4 45 +27 +27 жарко 1012.5 927.7
15 18.06 Ю 3 н/о н/о +24.5 +12.4 47 +26 +26 жарко 1012.3 927.3
16 18.06 З 4 н/о н/о +21.7 +13.6 60 +24 +24 комфорт 1013.2 927.4
17 18.06 штиль 0 н/о осадки н/о +16.4 +14.2 87 +16 +16 1016.9 929.3 0.9
18 18.06 СВ 2 н/о осадки н/о +14.8 +14.0 95 +14 +14 1017.2 929.1 +14.7 +26.0 3
19 18.06 СВ 1 н/о ливневой дождь н/о +15.0 +14.0 94 +15 +15 1017.1 929.1 0.2
20 18.06 СЗ 1 н/о в посл. час осадки н/о +14.7 +13.7 94 +15 +15 1017.2 929.1 0.4
21 18.06 штиль 0 н/о {ливн. осадки} н/о +14.0 +12.9 93 +14 +14 1017.4 929.0 0.6
22 18.06 С 1 н/о н/о +14.0 +13.0 94 +14 +14 1017.3 928.9
23 18.06 СЗ 2 н/о н/о +13.6 +12.6 94 +13 +13 1017.3 928.8
00 19.06 СЗ 2 н/о {ливн. осадки} н/о +13.6 +12.5 93 +13 +13 1017.1 928.6 0.6
01 19.06 СЗ 1 н/о н/о +13.5 +12.4 93 +14 +14 1016.7 928.2
02 19.06 С 1 н/о н/о +13.4 +12.3 93 +14 +14 1016.5 928.0
03 19.06 СЗ 1 н/о н/о +13.0 +11.9 93 +13 +13 1016.3 927.7
04 19.06 СЗ 1 н/о н/о +12.9 +11.8 93 +13 +13 1016.2 927.6
05 19.06 СЗ 1 н/о н/о +13.2 +12.1 93 +13 +13 1016.1 927.6
06 19.06 штиль 0 н/о н/о +13.2 +12.1 93 +13 +13 1016.1 927.6 +12.8 +15.1 0.6
07 19.06 ЮЗ 1 н/о н/о +13.7 +12.6 93 +14 +14 1016.0 927.6
08 19.06 В 1 н/о н/о +14.8 +13.1 90 +15 +15 1015.6 927.6
09 19.06 В 1 н/о н/о +17.4 +14.6 84 +18 +18 1014.1 927.0
10 19.06 В 2 н/о н/о +20.6 +15.4 72 +24 +24 комфорт 1012.3 926.3
11 19.06 В 1 н/о н/о +23.6 +14.9 58 +26 +26 жарко 1010.5 925.5
12 19.06 штиль 0 н/о н/о +25.0 +12.9 47 +27 +27 жарко 1009.3 924.7
13 19.06 ЮВ 1 н/о н/о +26.1 +11.4 40 +27 +27 жарко 1008.7 924.4
14 19.06 Ю 1 н/о н/о +24.5 +12.7 48 +26 +26 жарко 1009.1 924.4
15 19.06 З 3 н/о н/о +16.3 +14.9 91 +16 +16 1013.2 925.9 11
16 19.06 В 2 н/о осадки н/о +15.5 +14.0 91 +15 +15 1014.5 926.8 3
17 19.06 штиль 0 н/о осадки н/о +15.5 +14.0 91 +15 +15 1013.9 926.3 0.5
18 19.06 штиль 0 н/о {осадки} н/о +15.5 +14.2 92 +15 +15 1014.0 926.4 +13.1 +26.6 14
19 19.06 СВ 2 н/о н/о +14.9 +13.9 94 +15 +15 1013.4 925.7
20 19.06 СВ 1 н/о н/о +14.8 +13.8 94 +15 +15 1014.0 926.2
21 19.06 СЗ 1 н/о н/о +14.1 +13.0 93 +14 +14 1014.4 926.3
22 19.06 СВ 3 н/о н/о +13.9 +12.8 93 +13 +13 1014.5 926.3
23 19.06 штиль 0 н/о н/о +13.9 +12.8 93 +13 +13 1014.5 926.3
00 20.06 В 1 н/о н/о +13.6 +12.5 93 +14 +14 1014.7 926.4
01 20.06 В 1 н/о н/о +13.4 +12.3 93 +14 +14 1014.6 926.3
02 20.06 СВ 1 н/о н/о +13.2 +12.1 93 +13 +13 1014.4 926.0
03 20.06 В 1 н/о н/о +12.9 +11.8 93 +13 +13 1014.4 925.9
04 20.06 СВ 1 н/о н/о +12.9 +11.8 93 +13 +13 1014.8 926.3
05 20.06 СВ 2 н/о н/о +12.8 +11.7 93 +12 +12 1015.1 926.5
06 20.06 СВ 1 н/о н/о +13.0 +11.9 93 +13 +13 1015.4 926.9 +12.7 +15.5
07 20.06 СВ 1 н/о н/о +13.7 +12.2 91 +14 +14 1015.4 927.1
08 20.06 В 1 н/о н/о +16.7 +13.6 82 +18 +18 1014.1 926.8
09 20.06 СВ 1 н/о н/о +19.3 +15.4 78 +22 +22 комфорт 1013.0 926.6
10 20.06 В 1 н/о н/о +21.9 +15.1 65 +25 +25 комфорт 1012.0 926.4
11 20.06 С 2 н/о н/о +24.5 +14.3 53 +27 +27 жарко 1010.7 925.9
12 20.06 Ю 2 н/о н/о +24.3 +13.5 51 +27 +27 жарко 1010.5 925.6
13 20.06 Ю 2 н/о н/о +24.6 +11.5 44 +26 +26 жарко 1010.0 925.2
14 20.06 В 1 н/о н/о +25.0 +12.6 46 +27 +27 жарко 1009.3 924.7
15 20.06 В 3 н/о н/о +24.6 +13.2 49 +27 +27 жарко 1009.1 924.4
16 20.06 СВ 3 н/о н/о +22.6 +13.3 56 +26 +26 жарко 1010.0 924.7
17 20.06 С 1 н/о н/о +22.2 +14.3 61 +25 +25 комфорт 1010.7 925.3
18 20.06 ЮЗ 1 н/о осадки н/о +18.9 +16.7 87 +21 +21 комфорт 1012.2 925.8 +12.8 +25.7 0.5
19 20.06 Ю 1 н/о в посл. час осадки н/о +16.7 +15.3 91 +18 +18 1013.7 926.5 0.1
20 20.06 штиль 0 н/о в посл. час осадки н/о +16.5 +15.4 93 +16 +16 1014.4 927.1 0.1
21 20.06 С 3 н/о {ливн. осадки} н/о +13.7 +12.6 93 +12 +12 1016.5 928.1 9
22 20.06 С 1 н/о осадки н/о +13.5 +12.5 94 +14 +14 1017.6 929.0 2
23 20.06 С 1 н/о в посл. час осадки н/о +13.5 +12.7 95 +14 +14 1017.4 928.9 0.1
00 21.06 ЮЗ 1 н/о {ливн. осадки} н/о +13.0 +12.2 95 +13 +13 1017.8 929.1 11
01 21.06 штиль 0 н/о н/о +13.1 +12.3 95 +13 +13 1017.6 928.9
02 21.06 ЮЗ 1 н/о н/о +13.1 +12.1 94 +13 +13 1017.6 928.9
03 21.06 штиль 0 н/о н/о +13.0 +12.0 94 +12 +12 1018.1 929.3
04 21.06 СЗ 2 н/о н/о +12.7 +11.7 94 +12 +12 1018.6 929.7
05 21.06 СЗ 1 н/о н/о +13.1 +12.0 93 +13 +13 1018.5 929.7
06 21.06 ЮЗ 2 н/о н/о +13.0 +11.9 93 +12 +12 1018.8 930.0 +12.6 +19.7 11
07 21.06 СВ 1 н/о н/о +13.9 +12.6 92 +14 +14 1018.7 930.2
08 21.06 Ю 1 н/о н/о +15.7 +13.3 86 +16 +16 1018.1 930.2
09 21.06 ЮВ 1 н/о н/о +18.5 +12.2 67 +20 +20 1017.2 930.1
10 21.06 З 1 н/о н/о +21.1 +13.0 60 +23 +23 комфорт 1016.2 929.9
11 21.06 Ю 1 н/о н/о +22.2 +9.7 45 +24 +24 комфорт 1015.7 929.7
12 21.06 Ю 1 н/о н/о +23.6 +11.6 47 +25 +25 комфорт 1014.8 929.3
13 21.06 В 3 н/о н/о +23.3 +12.6 51 +26 +26 жарко 1014.4 928.9
14 21.06 СВ 2 н/о н/о +23.2 +12.2 50 +26 +26 жарко 1014.1 928.6
15 21.06 штиль 0 н/о н/о +23.4 +11.4 47 +26 +26 жарко 1014.0 928.5
16 21.06 СЗ 3 н/о н/о +21.7 +14.1 62 +25 +25 комфорт 1014.1 928.2
17 21.06 СЗ 2 н/о н/о +21.2 +14.6 66 +24 +24 комфорт 1014.8 928.7
18 21.06 ЮЗ 1 н/о н/о +19.6 +14.2 71 +22 +22 комфорт 1016.1 929.5 +13.0 +24.4 0.0
19 21.06 штиль 0 н/о н/о +18.5 +15.6 83 +19 +19 1017.1 930.1
20 21.06 В 1 н/о н/о +17.6 +14.1 80 +19 +19 1018.4 931.0
21 21.06 В 1 н/о осадки н/о +16.1 +14.2 88 +17 +17 1019.2 931.3 0.2
22 21.06 З 1 н/о н/о +15.9 +14.6 92 +17 +17 1019.6 931.6 0.0
23 21.06 СВ 1 н/о в посл. час осадки н/о +15.5 +14.3 93 +16 +16 1019.6 931.5 0.1
00 22.06 СВ 1 н/о {ливн. осадки} н/о +15.1 +13.9 93 +16 +16 1019.7 931.5 0.3
01 22.06 ЮВ 1 н/о н/о +14.8 +13.8 94 +15 +15 1019.6 931.3 0.0
02 22.06 штиль 0 н/о н/о +14.7 +13.7 94 +14 +14 1019.2 930.9
03 22.06 СВ 1 н/о н/о +14.4 +13.4 94 +15 +15 1019.4 931.0 0.0
04 22.06 СВ 1 н/о н/о +14.0 +13.0 94 +14 +14 1019.5 930.9
05 22.06 СВ 1 н/о н/о +14.3 +12.8 91 +15 +15 1019.8 931.3
06 22.06 ЮВ 1 н/о н/о +15.2 +12.8 86 +16 +16 1019.5 931.3 +14.0 +19.8 0.3
07 22.06 СВ 1 н/о н/о +16.6 +14.2 86 +17 +17 1018.8 931.1
08 22.06 В 1 н/о н/о +17.7 +14.0 79 +19 +19 1018.3 930.9
09 22.06 СЗ 1 н/о н/о +19.3 +15.0 76 +22 +22 комфорт 1017.3 930.5
10 22.06 Ю 2 н/о н/о +19.5 +13.8 70 +22 +22 комфорт 1017.3 930.5
11 22.06 Ю 1 н/о н/о +19.2 +14.9 76 +22 +22 комфорт 1017.2 930.4 0.0
12 22.06 З 1 н/о н/о +19.7 +13.8 69 +23 +23 комфорт 1016.9 930.2 0.0
13 22.06 З 1 н/о осадки н/о +17.7 +15.7 88 +19 +19 1017.0 929.8 0.9
14 22.06 Ю 4 н/о осадки н/о +16.3 +14.3 88 +16 +16 1017.9 930.2 2
15 22.06 Ю 1 н/о осадки н/о +15.3 +14.0 92 +16 +16 1017.6 929.6 7
16 22.06 З 1 н/о осадки н/о +15.7 +14.5 93 +16 +16 1015.8 928.1 2
17 22.06 штиль 0 н/о н/о +16.2 +14.5 90 +16 +16 1015.4 927.9
18 22.06 СВ 1 н/о {осадки} н/о +16.2 +14.5 90 +17 +17 1015.6 928.1 +15.0 +20.4 9
19 22.06 З 1 н/о н/о +15.4 +14.2 93 +16 +16 1015.6 927.8
20 22.06 З 2 н/о н/о +14.9 +13.9 94 +15 +15 1015.6 927.7
21 22.06 З 2 н/о н/о +14.7 +13.7 94 +14 +14 1016.0 928.0
22 22.06 штиль 0 н/о н/о +14.8 +13.8 94 +14 +14 1016.4 928.4
23 22.06 штиль 0 н/о н/о +14.7 +13.7 94 +14 +14 1015.9 927.9
00 23.06 СВ 1 н/о н/о +14.6 +13.6 94 +15 +15 1015.6 927.6
01 23.06 З 1 н/о н/о +14.2 +13.2 94 +14 +14 1015.6 927.4
02 23.06 СЗ 1 н/о н/о +14.8 +13.8 94 +15 +15 1015.6 927.6
03 23.06 штиль 0 н/о н/о +14.6 +13.6 94 +14 +14 1015.6 927.6
04 23.06 СВ 1 н/о н/о +14.5 +13.5 94 +15 +15 1015.7 927.6
05 23.06 СВ 1 н/о ливневой дождь н/о +14.7 +13.7 94 +15 +15 1015.7 927.7 0.0
06 23.06 ЮВ 1 н/о в посл. час осадки {ливн. осадки} н/о +15.4 +14.4 94 +16 +16 1015.6 927.8 +14.0 +16.3 0.0
07 23.06 штиль 0 н/о в посл. час осадки н/о +16.1 +14.6 91 +16 +16 1015.8 928.2 0.1
08 23.06 Ю 1 н/о н/о +16.8 +14.9 89 +18 +18 1015.9 928.5 0.0
09 23.06 З 1 н/о {осадки} н/о +17.4 +15.3 87 +18 +18 1015.9 928.7 0.1
10 23.06 Ю 2 н/о осадки н/о +17.6 +14.1 80 +18 +18 1016.2 929.0 0.0
11 23.06 Ю 1 н/о в посл. час осадки н/о +18.0 +14.5 80 +19 +19 1016.2 929.1 0.0
12 23.06 С 1 н/о осадки {ливн. осадки} н/о +17.9 +15.0 83 +19 +19 1016.7 929.6 0.4
13 23.06 СВ 1 н/о в посл. час осадки н/о +18.3 +15.0 81 +20 +20 1016.8 929.8 0.3
14 23.06 СВ 2 н/о ливневой дождь н/о +17.6 +15.1 85 +18 +18 1017.2 929.9 0.1
15 23.06 штиль 0 н/о {ливн. осадки} н/о +18.8 +15.1 79 +20 +20 1016.5 929.6 0.4
16 23.06 СЗ 1 н/о н/о +19.9 +14.0 69 +23 +23 комфорт 1016.2 929.6
17 23.06 СВ 1 н/о н/о +18.6 +13.8 74 +20 +20 1016.8 929.8 0.0
18 23.06 СЗ 1 н/о {ливн. осадки} н/о +17.5 +14.8 84 +19 +19 1017.6 930.3 +15.4 +20.2 0.8
19 23.06 СЗ 1 н/о н/о +16.5 +14.1 86 +17 +17 1018.6 930.9
20 23.06 СЗ 1 н/о н/о +15.8 +13.1 84 +16 +16 1019.4 931.4
21 23.06 штиль 0 н/о н/о +15.5 +13.8 90 +15 +15 1019.7 931.6 0.0
22 23.06 ЮЗ 1 н/о в посл. час осадки н/о +15.4 +14.2 93 +16 +16 1020.2 932.0 0.2
23 23.06 штиль 0 н/о н/о +15.5 +14.0 91 +15 +15 1020.2 932.0 0.0
00 24.06 штиль 0 н/о {осадки} н/о +15.7 +14.2 91 +15 +15 1020.4 932.3 0.2
01 24.06 СЗ 2 н/о ливневой дождь н/о +16.1 +14.1 88 +16 +16 1020.6 932.6 0.1
02 24.06 СЗ 1 н/о н/о +15.5 +14.3 93 +16 +16 1020.6 932.4
03 24.06 СЗ 1 н/о {ливн. осадки} н/о +15.2 +13.7 91 +16 +16 1020.7 932.4 0.1
04 24.06 ЮЗ 1 н/о н/о +14.6 +13.3 92 +15 +15 1021.4 932.9
05 24.06 Ю 1 н/о н/о +15.2 +14.0 93 +16 +16 1021.3 933.0
06 24.06 штиль 0 н/о {ливн. осадки} н/о +16.1 +15.0 93 +16 +16 1021.1 933.1 +14.5 +17.8 0.3
07 24.06 В 1 н/о н/о +18.2 +14.9 81 +20 +20 1020.6 933.2
08 24.06 Ю 1 н/о н/о +20.0 +13.4 66 +23 +23 комфорт 1020.2 933.3
09 24.06 В 3 н/о н/о +22.4 +13.7 58 +26 +26 жарко 1019.2 933.1
10 24.06 СВ 5 н/о н/о +22.3 +13.1 56 +25 +25 комфорт 1019.5 933.3
11 24.06 В 3 н/о н/о +23.7 +13.8 54 +26 +26 жарко 1018.9 933.2
12 24.06 СВ 3 н/о н/о +23.3 +12.6 51 +26 +26 жарко 1019.2 933.3
13 24.06 СВ 2 н/о н/о +23.7 +12.6 50 +26 +26 жарко 1019.0 933.2
14 24.06 СВ 3 н/о н/о +23.2 +12.8 52 +26 +26 жарко 1019.4 933.4
15 24.06 СВ 3 н/о н/о +24.7 +13.2 49 +27 +27 жарко 1018.8 933.3
16 24.06 СЗ 2 н/о н/о +22.2 +13.8 59 +25 +25 комфорт 1019.6 933.4

 

Местоположение метеостанции Афленц-Курорт (Австрия): широта 47.55 долгота 15.24 высота над уровнем моря 775 м.

В архиве по умолчанию представлена погода в Афленц-Курорте за последнюю неделю. Архивные данные за месяц целиком и за предыдущие месяцы, начиная с января 2011 года, Вы можете получить, выбрав интересующий диапазон дат из раскрывающегося списка и нажав кнопку "Ввод!".


*Определитесь, кто Вы:
робот инопланетянин человек

Внимание! Время в таблицах - всемирное. Для получения местного времени необходимо прибавить поправку, которая равна 1 ч.

Смотрите также архив погоды в соседних городах и на ближайших метеорологических станциях:

Погода в Капфенберг аэропорту (Австрия) (11 км)
Погода в Капфенберге (Австрия) (12 км)
Погода в Брукк-ан-дер-Муре (Австрия) (15 км)
Погода в Леобене (Австрия) (22 км)
Погода в Пребихле (Австрия) (22 км)
Погода в Санкт-Себастьяне (Австрия) (28 км)
Погода в Фишбахе (Австрия) (32 км)
Погода в Лунце (Австрия) (36 км)
Погода в Кальванге (Австрия) (39 км)
Погода на Шёкле (Австрия) (43 км)

Пояснения к столбцам:

Ветер - указаны скорость ветра в м/с - средняя за 10 мин, порывы в срок и между сроками (в фигурных скобках) и направление, откуда дует ветер: С - северный, СВ - северо-восточный, В - восточный, ЮВ - юго-восточный, Ю - южный, ЮЗ - юго-западный, З - западный, СЗ - северо-западный.
Видимость - горизонтальная дальность видимости в метрах или километрах. При видимости от 1 до 10 км при отсутствии осадков обычно наблюдается дымка, при ухудшении видимости до 1 км и менее - туман. В сухую погоду видимость может ухудшаться дымом, пылью или мглою.
Явления - указаны атмосферные явления, наблюдавшиеся в срок или в последний час перед сроком; фигурными скобками обозначены явления, наблюдавшиеся между сроками (за 1-3 часа до срока); квадратными скобками обозначены град или гололедные отложения с указанием их диаметра в мм.
Облачность - указаны через наклонную черту общая и нижняя облачность в баллах и высота нижней границы облаков в метрах; квадратными скобками обозначены формы облаков: Ci - перистые, Cs - перисто-слоистые, Cc - перисто-кучевые, Ac - высококучевые, As - высокослоистые, Sc - слоисто-кучевые, Ns - слоисто-дождевые, Cu - кучевые, Cb - кучево-дождевые. Подробнее классификацию облаков см. в Атласе облаков (PDF).
T - Температура воздуха - температура, измеренная на высоте 2 м над землей.
Td - Температура точки росы - температура, при понижении до которой содержащийся в воздухе водяной пар достигнет насыщения.
f - Относительная влажность воздуха - влажноcть воздуха, измеренная на высоте 2 м над землей.
Te - Эффективная температура - температура, которую ощущает одетый по сезону человек в тени. Характеристика душности погоды. При расчете учитывается влияние влажности воздуха и скорости ветра на теплоощущения человека.
Tes - Эффективная температура на солнце - температура, которую ощущает человек, с поправкой на солнечный нагрев. Характеристика знойности погоды. Зависит от высоты солнца над горизонтом, облачности и скорости ветра. Ночью, в пасмурную погоду, а также при ветре 12 м/с и более поправка равна нулю.
P - Атмосферное давление - приведенное к уровню моря атмосферное давление.
Po - Атмосферное давление - измеренное на уровне метеостанции атмосферное давление.
Tmin - Минимальная температура - минимум температуры воздуха на высоте 2 м над землей.
Tmax - Максимальная температура - максимум температуры воздуха на высоте 2 м над землей.
R - Количество осадков - Количество выпавших осадков за период времени, мм. При наведении курсора мыши на число - период времени, за который выпало указанное количество осадков.
R24 - Количество осадков - Количество выпавших осадков за 24 часа, мм.
S - Снежный покров - Высота снежного покрова, см. При наведении курсора мыши на число - состояние снежного покрова и степень покрытия местности в баллах.